Time,TemperatureF,DewpointF,PressureIn,WindDirection,WindDirectionDegrees,WindSpeedMPH,WindSpeedGustMPH,Humidity,HourlyPrecipIn,Conditions,Clouds,dailyrainin,SoftwareType,DateUTC
2013-07-09 00:00:00,80.7,74.0,30.17,West,265,0.0,0.0,80,0.00,,---,0.00,VWS V14.01,2013-07-09 04:00:00,
2013-07-09 00:01:00,80.7,74.0,30.17,West,265,0.0,0.0,80,0.00,,---,0.00,VWS V14.01,2013-07-09 04:01:00,
2013-07-09 00:06:00,80.7,74.0,30.17,West,265,0.0,0.0,80,0.00,,---,0.00,VWS V14.01,2013-07-09 04:06:00,
2013-07-09 00:11:00,80.7,74.0,30.17,West,265,0.0,0.0,80,0.00,,---,0.00,VWS V14.01,2013-07-09 04:11:00,
2013-07-09 00:16:00,80.7,74.0,30.16,West,265,0.0,0.0,80,0.00,,---,0.00,VWS V14.01,2013-07-09 04:16:00,
2013-07-09 00:21:00,80.7,74.0,30.16,West,265,0.0,0.0,80,0.00,,---,0.00,VWS V14.01,2013-07-09 04:21:00,
2013-07-09 00:26:00,80.7,74.0,30.16,West,265,0.0,0.0,80,0.00,,---,0.00,VWS V14.01,2013-07-09 04:26:00,
2013-07-09 00:30:00,80.7,74.0,30.16,West,265,0.0,0.0,80,0.00,,---,0.00,VWS V14.01,2013-07-09 04:30:00,
2013-07-09 00:31:00,80.7,74.0,30.16,West,265,0.0,0.0,80,0.00,,---,0.00,VWS V14.01,2013-07-09 04:31:00,
2013-07-09 00:36:00,80.7,74.0,30.16,West,265,0.0,0.0,80,0.00,,---,0.00,VWS V14.01,2013-07-09 04:36:00,
2013-07-09 00:41:00,80.7,74.0,30.16,West,265,0.0,0.0,80,0.00,,---,0.00,VWS V14.01,2013-07-09 04:41:00,
2013-07-09 00:46:00,80.7,74.0,30.16,West,265,0.0,0.0,80,0.00,,---,0.00,VWS V14.01,2013-07-09 04:46:00,
2013-07-09 00:51:00,80.7,74.0,30.16,West,265,0.0,0.0,80,0.00,,---,0.00,VWS V14.01,2013-07-09 04:51:00,
2013-07-09 00:56:00,80.7,74.0,30.16,West,265,0.0,0.0,80,0.00,,---,0.00,VWS V14.01,2013-07-09 04:56:00,
2013-07-09 01:00:00,80.7,74.0,30.16,West,265,0.0,0.0,80,0.00,,---,0.00,VWS V14.01,2013-07-09 05:00:00,
2013-07-09 01:01:00,80.7,74.0,30.16,West,265,0.0,0.0,80,0.00,,---,0.00,VWS V14.01,2013-07-09 05:01:00,
2013-07-09 01:06:00,80.7,74.0,30.16,West,265,0.0,0.0,80,0.00,,---,0.00,VWS V14.01,2013-07-09 05:06:00,
2013-07-09 01:11:00,80.7,74.0,30.16,West,265,0.0,0.0,80,0.00,,---,0.00,VWS V14.01,2013-07-09 05:11:00,
2013-07-09 01:16:00,80.7,74.0,30.15,West,265,0.0,0.0,80,0.00,,---,0.00,VWS V14.01,2013-07-09 05:16:00,
2013-07-09 01:21:00,80.7,74.0,30.15,West,265,0.0,0.0,80,0.00,,---,0.00,VWS V14.01,2013-07-09 05:21:00,
2013-07-09 01:26:00,80.7,74.0,30.15,West,265,0.0,0.0,80,0.00,,---,0.00,VWS V14.01,2013-07-09 05:26:00,
2013-07-09 01:30:00,80.7,74.0,30.15,West,265,0.0,0.0,80,0.00,,---,0.00,VWS V14.01,2013-07-09 05:30:00,
2013-07-09 01:31:00,80.7,74.0,30.15,West,265,0.0,0.0,80,0.00,,---,0.00,VWS V14.01,2013-07-09 05:31:00,
2013-07-09 01:36:00,80.7,74.0,30.15,West,265,0.0,0.0,80,0.00,,---,0.00,VWS V14.01,2013-07-09 05:36:00,
2013-07-09 01:41:00,80.7,74.0,30.15,West,265,0.0,0.0,80,0.00,,---,0.00,VWS V14.01,2013-07-09 05:41:00,
2013-07-09 01:46:00,80.7,74.0,30.15,West,265,0.0,0.0,80,0.00,,---,0.00,VWS V14.01,2013-07-09 05:46:00,
2013-07-09 01:51:00,76.7,68.6,30.15,WSW,258,0.0,0.0,76,0.00,,---,0.00,VWS V14.01,2013-07-09 05:51:00,
2013-07-09 01:56:00,76.6,68.5,30.15,WSW,258,0.0,0.0,76,0.00,,---,0.00,VWS V14.01,2013-07-09 05:56:00,
2013-07-09 02:00:00,76.6,68.5,30.15,WSW,258,0.0,0.0,76,0.00,,---,0.00,VWS V14.01,2013-07-09 06:00:00,
2013-07-09 02:01:00,76.6,68.5,30.15,WSW,258,0.0,0.0,76,0.00,,---,0.00,VWS V14.01,2013-07-09 06:01:00,
2013-07-09 02:06:00,76.4,68.3,30.15,WSW,258,0.0,0.0,76,0.00,,---,0.00,VWS V14.01,2013-07-09 06:06:00,
2013-07-09 02:10:00,76.3,68.2,30.15,WSW,258,0.0,0.0,76,0.00,,---,0.00,VWS V14.01,2013-07-09 06:10:00,
2013-07-09 02:15:00,76.2,68.1,30.15,WSW,258,0.0,0.0,76,0.00,,---,0.00,VWS V14.01,2013-07-09 06:15:00,
2013-07-09 02:20:00,76.1,68.0,30.15,WSW,258,0.0,0.0,76,0.00,,---,0.00,VWS V14.01,2013-07-09 06:20:00,
2013-07-09 02:25:00,76.0,67.9,30.15,West,259,0.0,0.0,76,0.00,,---,0.00,VWS V14.01,2013-07-09 06:25:00,
2013-07-09 02:30:00,75.9,67.8,30.15,West,259,0.0,0.0,76,0.00,,---,0.00,VWS V14.01,2013-07-09 06:30:00,
2013-07-09 02:35:00,75.7,68.0,30.15,WSW,258,0.0,0.0,77,0.00,,---,0.00,VWS V14.01,2013-07-09 06:35:00,
2013-07-09 02:40:00,75.6,67.9,30.15,WSW,258,0.0,0.0,77,0.00,,---,0.00,VWS V14.01,2013-07-09 06:40:00,
2013-07-09 02:45:00,75.5,67.8,30.15,West,259,0.0,0.0,77,0.00,,---,0.00,VWS V14.01,2013-07-09 06:45:00,
2013-07-09 02:50:00,75.4,67.7,30.15,West,259,0.0,0.0,77,0.00,,---,0.00,VWS V14.01,2013-07-09 06:50:00,
2013-07-09 02:55:00,75.4,67.7,30.15,West,259,0.0,0.0,77,0.00,,---,0.00,VWS V14.01,2013-07-09 06:55:00,
2013-07-09 03:00:00,75.3,68.0,30.15,West,259,0.0,0.0,78,0.00,,---,0.00,VWS V14.01,2013-07-09 07:00:00,
2013-07-09 03:05:00,75.2,67.9,30.15,West,259,0.0,0.0,78,0.00,,---,0.00,VWS V14.01,2013-07-09 07:05:00,
2013-07-09 03:10:00,75.2,67.9,30.15,West,259,0.0,0.0,78,0.00,,---,0.00,VWS V14.01,2013-07-09 07:10:00,
2013-07-09 03:15:00,75.2,67.9,30.14,WSW,258,0.0,0.0,78,0.00,,---,0.00,VWS V14.01,2013-07-09 07:15:00,
2013-07-09 03:20:00,75.2,67.9,30.14,WSW,258,0.0,0.0,78,0.00,,---,0.00,VWS V14.01,2013-07-09 07:20:00,
2013-07-09 03:25:00,75.1,67.8,30.14,WSW,258,0.0,0.0,78,0.00,,---,0.00,VWS V14.01,2013-07-09 07:25:00,
2013-07-09 03:30:00,75.1,67.8,30.14,West,259,0.0,0.0,78,0.00,,---,0.00,VWS V14.01,2013-07-09 07:30:00,
2013-07-09 03:35:00,75.0,67.7,30.14,West,259,0.0,0.0,78,0.00,,---,0.00,VWS V14.01,2013-07-09 07:35:00,
2013-07-09 03:40:00,75.0,67.7,30.14,West,259,0.0,0.0,78,0.00,,---,0.00,VWS V14.01,2013-07-09 07:40:00,
2013-07-09 03:45:00,75.0,68.1,30.14,West,259,0.0,0.0,79,0.00,,---,0.00,VWS V14.01,2013-07-09 07:45:00,
2013-07-09 03:52:00,74.9,67.9,30.13,West,259,0.0,0.0,79,0.00,,---,0.00,VWS V14.01,2013-07-09 07:52:00,
2013-07-09 03:57:00,74.7,67.8,30.13,West,259,0.0,0.0,79,0.00,,---,0.00,VWS V14.01,2013-07-09 07:57:00,
2013-07-09 04:00:00,74.7,67.8,30.14,West,259,0.0,0.0,79,0.00,,---,0.00,VWS V14.01,2013-07-09 08:00:00,
2013-07-09 04:02:00,74.6,67.7,30.13,West,259,0.0,0.0,79,0.00,,---,0.00,VWS V14.01,2013-07-09 08:02:00,
2013-07-09 04:07:00,74.5,67.6,30.13,West,259,0.0,0.0,79,0.00,,---,0.00,VWS V14.01,2013-07-09 08:07:00,
2013-07-09 04:12:00,74.5,67.6,30.13,West,259,0.0,0.0,79,0.00,,---,0.00,VWS V14.01,2013-07-09 08:12:00,
2013-07-09 04:17:00,74.4,67.5,30.14,West,259,0.0,0.0,79,0.00,,---,0.00,VWS V14.01,2013-07-09 08:17:00,
2013-07-09 04:22:00,74.4,67.8,30.13,West,259,0.0,0.0,80,0.00,,---,0.00,VWS V14.01,2013-07-09 08:22:00,
2013-07-09 04:27:00,74.4,67.8,30.13,West,259,0.0,0.0,80,0.00,,---,0.00,VWS V14.01,2013-07-09 08:27:00,
2013-07-09 04:30:00,74.4,67.8,30.13,West,259,0.0,0.0,80,0.00,,---,0.00,VWS V14.01,2013-07-09 08:30:00,
2013-07-09 04:32:00,74.4,67.8,30.14,West,259,0.0,0.0,80,0.00,,---,0.00,VWS V14.01,2013-07-09 08:32:00,
2013-07-09 04:37:00,74.4,67.8,30.13,West,259,0.0,0.0,80,0.00,,---,0.00,VWS V14.01,2013-07-09 08:37:00,
2013-07-09 04:42:00,74.4,67.8,30.13,West,259,0.0,0.0,80,0.00,,---,0.00,VWS V14.01,2013-07-09 08:42:00,
2013-07-09 04:47:00,74.3,67.7,30.14,West,259,0.0,0.0,80,0.00,,---,0.00,VWS V14.01,2013-07-09 08:47:00,
2013-07-09 04:52:00,74.3,67.7,30.14,West,259,0.0,0.0,80,0.00,,---,0.00,VWS V14.01,2013-07-09 08:52:00,
2013-07-09 04:57:00,74.3,67.7,30.14,West,259,0.0,0.0,80,0.00,,---,0.00,VWS V14.01,2013-07-09 08:57:00,
2013-07-09 05:00:00,74.3,67.7,30.14,West,259,0.0,0.0,80,0.00,,---,0.00,VWS V14.01,2013-07-09 09:00:00,
2013-07-09 05:02:00,74.3,67.7,30.14,West,259,0.0,0.0,80,0.00,,---,0.00,VWS V14.01,2013-07-09 09:02:00,
2013-07-09 05:07:00,74.2,67.6,30.14,West,259,0.0,0.0,80,0.00,,---,0.00,VWS V14.01,2013-07-09 09:07:00,
2013-07-09 05:12:00,74.1,67.9,30.14,West,259,0.0,0.0,81,0.00,,---,0.00,VWS V14.01,2013-07-09 09:12:00,
2013-07-09 05:17:00,74.2,68.0,30.14,West,259,0.0,0.0,81,0.00,,---,0.00,VWS V14.01,2013-07-09 09:17:00,
2013-07-09 05:22:00,74.3,68.1,30.13,West,259,0.0,0.0,81,0.00,,---,0.00,VWS V14.01,2013-07-09 09:22:00,
2013-07-09 05:27:00,74.4,68.2,30.14,West,261,0.0,0.0,81,0.00,,---,0.00,VWS V14.01,2013-07-09 09:27:00,
2013-07-09 05:30:00,74.4,68.2,30.14,West,261,0.0,0.0,81,0.00,,---,0.00,VWS V14.01,2013-07-09 09:30:00,
2013-07-09 05:32:00,74.4,68.2,30.14,West,261,0.0,0.0,81,0.00,,---,0.00,VWS V14.01,2013-07-09 09:32:00,
2013-07-09 05:37:00,74.5,68.3,30.14,West,261,0.0,0.0,81,0.00,,---,0.00,VWS V14.01,2013-07-09 09:37:00,
2013-07-09 05:42:00,74.5,68.3,30.14,West,261,0.0,0.0,81,0.00,,---,0.00,VWS V14.01,2013-07-09 09:42:00,
2013-07-09 05:47:00,74.5,68.3,30.14,West,261,0.0,0.0,81,0.00,,---,0.00,VWS V14.01,2013-07-09 09:47:00,
2013-07-09 05:52:00,74.5,68.3,30.14,West,261,0.0,0.0,81,0.00,,---,0.00,VWS V14.01,2013-07-09 09:52:00,
2013-07-09 05:57:00,74.4,68.2,30.14,West,261,0.0,0.0,81,0.00,,---,0.00,VWS V14.01,2013-07-09 09:57:00,
2013-07-09 06:00:00,74.4,68.2,30.14,West,261,0.0,0.0,81,0.00,,---,0.00,VWS V14.01,2013-07-09 10:00:00,
2013-07-09 06:02:00,74.4,68.2,30.14,West,261,0.0,0.0,81,0.00,,---,0.00,VWS V14.01,2013-07-09 10:02:00,
2013-07-09 06:07:00,74.2,68.0,30.14,West,261,0.0,0.0,81,0.00,,---,0.00,VWS V14.01,2013-07-09 10:07:00,
2013-07-09 06:12:00,74.2,68.0,30.14,West,261,0.0,0.0,81,0.00,,---,0.00,VWS V14.01,2013-07-09 10:12:00,
2013-07-09 06:17:00,74.2,68.0,30.14,West,261,0.0,0.0,81,0.00,,---,0.00,VWS V14.01,2013-07-09 10:17:00,
2013-07-09 06:22:00,74.1,67.9,30.14,West,261,0.0,0.0,81,0.00,,---,0.00,VWS V14.01,2013-07-09 10:22:00,
2013-07-09 06:27:00,74.1,67.9,30.15,West,261,0.0,0.0,81,0.00,,---,0.00,VWS V14.01,2013-07-09 10:27:00,
2013-07-09 06:30:00,74.1,67.9,30.15,West,261,0.0,0.0,81,0.00,,---,0.00,VWS V14.01,2013-07-09 10:30:00,
2013-07-09 06:32:00,74.0,67.8,30.15,West,261,0.0,0.0,81,0.00,,---,0.00,VWS V14.01,2013-07-09 10:32:00,
2013-07-09 06:37:00,74.0,67.8,30.15,West,261,0.0,0.0,81,0.00,,---,0.00,VWS V14.01,2013-07-09 10:37:00,
2013-07-09 06:42:00,74.1,67.9,30.15,West,261,0.0,0.0,81,0.00,,---,0.00,VWS V14.01,2013-07-09 10:42:00,
2013-07-09 06:47:00,74.2,68.4,30.14,West,261,0.0,0.0,82,0.00,,---,0.00,VWS V14.01,2013-07-09 10:47:00,
2013-07-09 06:52:00,74.4,68.6,30.15,West,261,0.0,0.0,82,0.00,,---,0.00,VWS V14.01,2013-07-09 10:52:00,
2013-07-09 06:57:00,74.5,68.7,30.15,West,261,0.0,0.0,82,0.00,,---,0.00,VWS V14.01,2013-07-09 10:57:00,
2013-07-09 07:00:00,74.5,68.7,30.15,West,261,0.0,0.0,82,0.00,,---,0.00,VWS V14.01,2013-07-09 11:00:00,
2013-07-09 07:02:00,74.6,68.8,30.14,West,261,0.0,0.0,82,0.00,,---,0.00,VWS V14.01,2013-07-09 11:02:00,
2013-07-09 07:07:00,74.7,68.8,30.15,West,261,0.0,0.0,82,0.00,,---,0.00,VWS V14.01,2013-07-09 11:07:00,
2013-07-09 07:12:00,74.9,69.0,30.15,West,261,0.0,0.0,82,0.00,,---,0.00,VWS V14.01,2013-07-09 11:12:00,
2013-07-09 07:17:00,75.2,69.3,30.15,West,261,0.0,0.0,82,0.00,,---,0.00,VWS V14.01,2013-07-09 11:17:00,
2013-07-09 07:22:00,75.5,69.6,30.15,West,261,0.0,0.0,82,0.00,,---,0.00,VWS V14.01,2013-07-09 11:22:00,
2013-07-09 07:27:00,75.8,69.9,30.15,West,260,0.0,0.0,82,0.00,,---,0.00,VWS V14.01,2013-07-09 11:27:00,
2013-07-09 07:30:00,76.0,69.8,30.15,West,259,0.0,0.0,81,0.00,,---,0.00,VWS V14.01,2013-07-09 11:30:00,
2013-07-09 07:32:00,76.1,69.8,30.15,West,259,0.0,0.0,81,0.00,,---,0.00,VWS V14.01,2013-07-09 11:32:00,
2013-07-09 07:37:00,76.5,70.2,30.15,West,259,0.0,0.0,81,0.00,,---,0.00,VWS V14.01,2013-07-09 11:37:00,
2013-07-09 07:42:00,76.8,70.2,30.15,WSW,254,0.0,0.0,80,0.00,,---,0.00,VWS V14.01,2013-07-09 11:42:00,
2013-07-09 07:47:00,77.2,70.2,30.15,West,260,0.0,0.0,79,0.00,,---,0.00,VWS V14.01,2013-07-09 11:47:00,
2013-07-09 07:52:00,77.5,70.5,30.16,West,263,0.0,0.0,79,0.00,,---,0.00,VWS V14.01,2013-07-09 11:52:00,
2013-07-09 07:57:00,77.9,70.5,30.16,WSW,258,0.0,0.0,78,0.00,,---,0.00,VWS V14.01,2013-07-09 11:57:00,
2013-07-09 08:00:00,78.1,70.3,30.16,WSW,258,0.0,0.0,77,0.00,,---,0.00,VWS V14.01,2013-07-09 12:00:00,
2013-07-09 08:02:00,78.2,70.4,30.16,WSW,258,0.0,0.0,77,0.00,,---,0.00,VWS V14.01,2013-07-09 12:02:00,
2013-07-09 08:07:00,78.6,70.8,30.16,West,263,0.0,0.0,77,0.00,,---,0.00,VWS V14.01,2013-07-09 12:07:00,
2013-07-09 08:12:00,78.9,70.7,30.16,West,262,0.0,0.0,76,0.00,,---,0.00,VWS V14.01,2013-07-09 12:12:00,
2013-07-09 08:17:00,79.3,70.7,30.16,WSW,252,0.0,0.0,75,0.00,,---,0.00,VWS V14.01,2013-07-09 12:17:00,
2013-07-09 08:22:00,79.4,70.4,30.16,WSW,255,0.0,0.0,74,0.00,,---,0.00,VWS V14.01,2013-07-09 12:22:00,
2013-07-09 08:27:00,79.8,70.8,30.16,WSW,248,0.0,0.0,74,0.00,,---,0.00,VWS V14.01,2013-07-09 12:27:00,
2013-07-09 08:30:00,79.9,70.5,30.16,WSW,252,0.0,0.0,73,0.00,,---,0.00,VWS V14.01,2013-07-09 12:30:00,
2013-07-09 08:32:00,80.1,70.7,30.16,WSW,249,0.0,0.0,73,0.00,,---,0.00,VWS V14.01,2013-07-09 12:32:00,
2013-07-09 08:37:00,80.4,71.0,30.16,WSW,257,0.0,0.0,73,0.00,,---,0.00,VWS V14.01,2013-07-09 12:37:00,
2013-07-09 08:42:00,80.6,71.2,30.16,WSW,240,0.0,0.0,73,0.00,,---,0.00,VWS V14.01,2013-07-09 12:42:00,
2013-07-09 08:47:00,80.3,70.5,30.16,SW,236,0.0,0.0,72,0.00,,---,0.00,VWS V14.01,2013-07-09 12:47:00,
2013-07-09 08:52:00,80.3,70.9,30.16,SW,234,0.0,0.0,73,0.00,,---,0.00,VWS V14.01,2013-07-09 12:52:00,
2013-07-09 08:57:00,80.4,70.6,30.16,SW,232,0.0,0.0,72,0.00,,---,0.00,VWS V14.01,2013-07-09 12:57:00,
2013-07-09 09:00:00,80.5,71.1,30.16,WSW,238,0.0,0.0,73,0.00,,---,0.00,VWS V14.01,2013-07-09 13:00:00,
2013-07-09 09:02:00,80.6,70.8,30.16,WSW,242,0.0,0.0,72,0.00,,---,0.00,VWS V14.01,2013-07-09 13:02:00,
2013-07-09 09:07:00,81.0,71.1,30.16,West,270,0.0,0.0,72,0.00,,---,0.00,VWS V14.01,2013-07-09 13:07:00,
2013-07-09 09:12:00,81.2,70.9,30.16,West,276,0.0,0.0,71,0.00,,---,0.00,VWS V14.01,2013-07-09 13:12:00,
2013-07-09 09:17:00,81.2,70.9,30.17,SW,225,0.0,0.0,71,0.00,,---,0.00,VWS V14.01,2013-07-09 13:17:00,
2013-07-09 09:22:00,81.5,71.2,30.16,SW,232,0.0,0.0,71,0.00,,---,0.00,VWS V14.01,2013-07-09 13:22:00,
2013-07-09 09:27:00,81.6,71.3,30.16,SW,214,0.0,0.0,71,0.00,,---,0.00,VWS V14.01,2013-07-09 13:27:00,
2013-07-09 09:30:00,81.7,71.0,30.17,WSW,245,0.0,0.0,70,0.00,,---,0.00,VWS V14.01,2013-07-09 13:30:00,
2013-07-09 09:32:00,81.8,71.1,30.17,SW,225,0.0,0.0,70,0.00,,---,0.00,VWS V14.01,2013-07-09 13:32:00,
2013-07-09 09:37:00,81.9,70.7,30.17,SW,227,0.0,0.0,69,0.00,,---,0.00,VWS V14.01,2013-07-09 13:37:00,
2013-07-09 09:42:00,82.0,70.8,30.17,SW,217,0.0,0.0,69,0.00,,---,0.00,VWS V14.01,2013-07-09 13:42:00,
2013-07-09 09:47:00,82.3,71.1,30.17,SSW,202,0.0,0.0,69,0.00,,---,0.00,VWS V14.01,2013-07-09 13:47:00,
2013-07-09 09:52:00,82.5,70.9,30.17,WSW,244,0.0,0.0,68,0.00,,---,0.00,VWS V14.01,2013-07-09 13:52:00,
2013-07-09 09:57:00,82.5,71.7,30.17,SSW,207,0.0,0.0,70,0.00,,---,0.00,VWS V14.01,2013-07-09 13:57:00,
2013-07-09 10:00:00,82.2,72.3,30.17,SSW,192,0.0,0.0,72,0.00,,---,0.00,VWS V14.01,2013-07-09 14:00:00,
2013-07-09 10:02:00,81.9,72.0,30.17,South,182,0.0,0.0,72,0.00,,---,0.00,VWS V14.01,2013-07-09 14:02:00,
2013-07-09 10:07:00,81.6,71.7,30.17,SSW,197,0.0,0.0,72,0.00,,---,0.00,VWS V14.01,2013-07-09 14:07:00,
2013-07-09 10:12:00,81.5,72.0,30.17,South,175,0.0,0.0,73,0.00,,---,0.00,VWS V14.01,2013-07-09 14:12:00,
2013-07-09 10:17:00,81.6,72.1,30.17,SSW,207,0.0,0.0,73,0.00,,---,0.00,VWS V14.01,2013-07-09 14:17:00,
2013-07-09 10:22:00,81.7,71.8,30.17,SSW,197,0.0,0.0,72,0.00,,---,0.00,VWS V14.01,2013-07-09 14:22:00,
2013-07-09 10:27:00,81.6,71.7,30.17,SSW,192,0.0,0.0,72,0.00,,---,0.00,VWS V14.01,2013-07-09 14:27:00,
2013-07-09 10:30:00,81.6,71.7,30.17,SSW,198,0.0,0.0,72,0.00,,---,0.00,VWS V14.01,2013-07-09 14:30:00,
2013-07-09 10:32:00,81.6,71.7,30.17,SSW,202,0.0,0.0,72,0.00,,---,0.00,VWS V14.01,2013-07-09 14:32:00,
2013-07-09 10:37:00,81.7,71.8,30.17,SSW,194,0.0,0.0,72,0.00,,---,0.00,VWS V14.01,2013-07-09 14:37:00,
2013-07-09 10:42:00,81.8,71.9,30.17,South,189,0.0,0.0,72,0.00,,---,0.00,VWS V14.01,2013-07-09 14:42:00,
2013-07-09 10:47:00,81.8,72.3,30.17,SW,215,0.0,0.0,73,0.00,,---,0.00,VWS V14.01,2013-07-09 14:47:00,
2013-07-09 10:52:00,81.9,72.4,30.17,SSW,202,0.0,0.0,73,0.00,,---,0.00,VWS V14.01,2013-07-09 14:52:00,
2013-07-09 10:57:00,81.8,71.9,30.17,SSW,201,0.0,0.0,72,0.00,,---,0.00,VWS V14.01,2013-07-09 14:57:00,
2013-07-09 11:00:00,81.9,72.0,30.17,SW,215,0.0,0.0,72,0.00,,---,0.00,VWS V14.01,2013-07-09 15:00:00,
2013-07-09 11:02:00,81.8,71.9,30.17,SSW,196,0.0,0.0,72,0.00,,---,0.00,VWS V14.01,2013-07-09 15:02:00,
2013-07-09 11:07:00,81.7,72.2,30.17,SSW,201,0.0,0.0,73,0.00,,---,0.00,VWS V14.01,2013-07-09 15:07:00,
2013-07-09 11:12:00,81.6,72.1,30.17,SSW,192,0.0,0.0,73,0.00,,---,0.00,VWS V14.01,2013-07-09 15:12:00,
2013-07-09 11:17:00,81.6,72.1,30.17,SSW,205,0.0,0.0,73,0.00,,---,0.00,VWS V14.01,2013-07-09 15:17:00,
2013-07-09 11:22:00,81.6,72.1,30.17,SSW,196,0.0,0.0,73,0.00,,---,0.00,VWS V14.01,2013-07-09 15:22:00,
2013-07-09 11:27:00,81.6,72.1,30.17,SSW,202,0.0,0.0,73,0.00,,---,0.00,VWS V14.01,2013-07-09 15:27:00,
2013-07-09 11:30:00,81.8,72.3,30.17,SSW,194,0.0,0.0,73,0.00,,---,0.00,VWS V14.01,2013-07-09 15:30:00,
2013-07-09 11:32:00,81.9,72.4,30.17,SW,221,0.0,0.0,73,0.00,,---,0.00,VWS V14.01,2013-07-09 15:32:00,
2013-07-09 11:37:00,82.1,71.8,30.17,SW,216,0.0,0.0,71,0.00,,---,0.00,VWS V14.01,2013-07-09 15:37:00,
2013-07-09 11:42:00,82.3,72.4,30.17,SW,218,0.0,0.0,72,0.00,,---,0.00,VWS V14.01,2013-07-09 15:42:00,
2013-07-09 11:47:00,82.5,72.6,30.17,SSW,196,0.0,0.0,72,0.00,,---,0.00,VWS V14.01,2013-07-09 15:47:00,
2013-07-09 11:52:00,82.4,72.5,30.17,SSW,200,0.0,0.0,72,0.00,,---,0.00,VWS V14.01,2013-07-09 15:52:00,
2013-07-09 11:57:00,82.7,72.8,30.17,SSW,207,0.0,0.0,72,0.00,,---,0.00,VWS V14.01,2013-07-09 15:57:00,
2013-07-09 12:00:00,82.5,72.6,30.17,SSW,206,0.0,0.0,72,0.00,,---,0.00,VWS V14.01,2013-07-09 16:00:00,
2013-07-09 12:02:00,82.6,73.1,30.17,South,190,0.0,0.0,73,0.00,,---,0.00,VWS V14.01,2013-07-09 16:02:00,
2013-07-09 12:07:00,82.3,72.4,30.17,SSW,211,0.0,0.0,72,0.00,,---,0.00,VWS V14.01,2013-07-09 16:07:00,
2013-07-09 12:12:00,82.5,72.6,30.16,SW,222,0.0,0.0,72,0.00,,---,0.00,VWS V14.01,2013-07-09 16:12:00,
2013-07-09 12:17:00,83.0,73.1,30.16,SSW,211,0.0,0.0,72,0.00,,---,0.00,VWS V14.01,2013-07-09 16:17:00,
2013-07-09 12:22:00,83.1,73.1,30.17,SSW,196,0.0,0.0,72,0.00,,---,0.00,VWS V14.01,2013-07-09 16:22:00,
2013-07-09 12:27:00,83.2,73.7,30.17,SW,219,0.0,0.0,73,0.00,,---,0.00,VWS V14.01,2013-07-09 16:27:00,
2013-07-09 12:30:00,82.8,73.7,30.17,SSW,209,0.0,0.0,74,0.00,,---,0.00,VWS V14.01,2013-07-09 16:30:00,
2013-07-09 12:32:00,82.6,73.5,30.17,SW,221,0.0,0.0,74,0.00,,---,0.00,VWS V14.01,2013-07-09 16:32:00,
2013-07-09 12:37:00,82.0,72.9,30.17,SW,231,0.0,0.0,74,0.00,,---,0.00,VWS V14.01,2013-07-09 16:37:00,
2013-07-09 12:42:00,82.0,72.5,30.17,SSW,209,0.0,0.0,73,0.00,,---,0.00,VWS V14.01,2013-07-09 16:42:00,
2013-07-09 12:46:00,82.1,72.2,30.17,SW,224,0.0,0.0,72,0.00,,---,0.00,VWS V14.01,2013-07-09 16:46:00,
2013-07-09 12:51:00,82.5,72.2,30.16,SSW,207,0.0,0.0,71,0.00,,---,0.00,VWS V14.01,2013-07-09 16:51:00,
2013-07-09 12:56:00,82.8,72.0,30.16,SW,225,0.0,0.0,70,0.00,,---,0.00,VWS V14.01,2013-07-09 16:56:00,
2013-07-09 13:00:00,82.8,72.4,30.16,SSW,213,0.0,0.0,71,0.00,,---,0.00,VWS V14.01,2013-07-09 17:00:00,
2013-07-09 13:01:00,82.8,72.4,30.16,SW,227,0.0,0.0,71,0.00,,---,0.00,VWS V14.01,2013-07-09 17:01:00,
2013-07-09 13:06:00,82.7,72.8,30.16,SSW,203,0.0,0.0,72,0.00,,---,0.00,VWS V14.01,2013-07-09 17:06:00,
2013-07-09 13:11:00,82.8,72.9,30.16,SW,227,0.0,0.0,72,0.00,,---,0.00,VWS V14.01,2013-07-09 17:11:00,
2013-07-09 13:16:00,83.1,73.6,30.16,SSW,207,0.0,0.0,73,0.00,,---,0.00,VWS V14.01,2013-07-09 17:16:00,
2013-07-09 13:21:00,83.1,73.1,30.16,SSW,198,0.0,0.0,72,0.00,,---,0.00,VWS V14.01,2013-07-09 17:21:00,
2013-07-09 13:26:00,83.2,72.8,30.15,SSW,206,0.0,0.0,71,0.00,,---,0.00,VWS V14.01,2013-07-09 17:26:00,
2013-07-09 13:30:00,83.2,73.2,30.15,SSW,203,0.0,0.0,72,0.00,,---,0.00,VWS V14.01,2013-07-09 17:30:00,
2013-07-09 13:31:00,83.3,73.3,30.15,SW,222,0.0,0.0,72,0.00,,---,0.00,VWS V14.01,2013-07-09 17:31:00,
2013-07-09 13:36:00,83.4,73.0,30.15,SSW,197,0.0,0.0,71,0.00,,---,0.00,VWS V14.01,2013-07-09 17:36:00,
2013-07-09 13:41:00,83.3,72.5,30.15,SW,219,0.0,0.0,70,0.00,,---,0.00,VWS V14.01,2013-07-09 17:41:00,
2013-07-09 13:46:00,83.2,72.8,30.15,SSW,206,0.0,0.0,71,0.00,,---,0.00,VWS V14.01,2013-07-09 17:46:00,
2013-07-09 13:51:00,83.5,73.1,30.15,SW,214,0.0,0.0,71,0.00,,---,0.00,VWS V14.01,2013-07-09 17:51:00,
2013-07-09 13:56:00,83.8,73.4,30.15,SSW,202,0.0,0.0,71,0.00,,---,0.00,VWS V14.01,2013-07-09 17:56:00,
2013-07-09 14:00:00,83.5,73.1,30.14,SW,214,0.0,0.0,71,0.00,,---,0.00,VWS V14.01,2013-07-09 18:00:00,
2013-07-09 14:01:00,83.6,73.2,30.14,South,188,0.0,0.0,71,0.00,,---,0.00,VWS V14.01,2013-07-09 18:01:00,
2013-07-09 14:06:00,83.8,73.0,30.14,SSW,210,0.0,0.0,70,0.00,,---,0.00,VWS V14.01,2013-07-09 18:06:00,
2013-07-09 14:11:00,83.7,73.3,30.14,SW,218,0.0,0.0,71,0.00,,---,0.00,VWS V14.01,2013-07-09 18:11:00,
2013-07-09 14:16:00,83.7,73.3,30.13,SSW,205,0.0,0.0,71,0.00,,---,0.00,VWS V14.01,2013-07-09 18:16:00,
2013-07-09 14:21:00,83.4,73.0,30.14,SW,221,0.0,0.0,71,0.00,,---,0.00,VWS V14.01,2013-07-09 18:21:00,
2013-07-09 14:26:00,83.2,72.4,30.13,SSW,208,0.0,0.0,70,0.00,,---,0.00,VWS V14.01,2013-07-09 18:26:00,
2013-07-09 14:30:00,83.2,72.8,30.13,SSW,209,0.0,0.0,71,0.00,,---,0.00,VWS V14.01,2013-07-09 18:30:00,
2013-07-09 14:31:00,83.2,72.8,30.13,SSW,208,0.0,0.0,71,0.00,,---,0.00,VWS V14.01,2013-07-09 18:31:00,
2013-07-09 14:36:00,83.3,72.9,30.13,SSW,211,0.0,0.0,71,0.00,,---,0.00,VWS V14.01,2013-07-09 18:36:00,
2013-07-09 14:41:00,83.1,72.7,30.13,SSW,205,0.0,0.0,71,0.00,,---,0.00,VWS V14.01,2013-07-09 18:41:00,
2013-07-09 14:46:00,83.4,73.0,30.12,SSW,203,0.0,0.0,71,0.00,,---,0.00,VWS V14.01,2013-07-09 18:46:00,
2013-07-09 14:51:00,83.4,73.0,30.12,SSW,204,0.0,0.0,71,0.00,,---,0.00,VWS V14.01,2013-07-09 18:51:00,
2013-07-09 14:56:00,83.0,72.6,30.12,SW,217,0.0,0.0,71,0.00,,---,0.00,VWS V14.01,2013-07-09 18:56:00,
2013-07-09 15:00:00,83.3,72.9,30.12,SW,223,0.0,0.0,71,0.00,,---,0.00,VWS V14.01,2013-07-09 19:00:00,
2013-07-09 15:01:00,83.4,73.4,30.12,SSW,199,0.0,0.0,72,0.00,,---,0.00,VWS V14.01,2013-07-09 19:01:00,
2013-07-09 15:06:00,83.5,73.5,30.12,SSW,200,0.0,0.0,72,0.00,,---,0.00,VWS V14.01,2013-07-09 19:06:00,
2013-07-09 15:11:00,83.1,72.7,30.12,SSW,202,0.0,0.0,71,0.00,,---,0.00,VWS V14.01,2013-07-09 19:11:00,
2013-07-09 15:16:00,83.1,72.7,30.12,SW,215,0.0,0.0,71,0.00,,---,0.00,VWS V14.01,2013-07-09 19:16:00,
2013-07-09 15:21:00,82.8,72.4,30.12,SW,216,0.0,0.0,71,0.00,,---,0.00,VWS V14.01,2013-07-09 19:21:00,
2013-07-09 15:26:00,83.1,72.7,30.12,SSW,213,0.0,0.0,71,0.00,,---,0.00,VWS V14.01,2013-07-09 19:26:00,
2013-07-09 15:30:00,82.8,72.0,30.11,SW,227,0.0,0.0,70,0.00,,---,0.00,VWS V14.01,2013-07-09 19:30:00,
2013-07-09 15:31:00,82.9,72.1,30.11,SSW,206,0.0,0.0,70,0.00,,---,0.00,VWS V14.01,2013-07-09 19:31:00,
2013-07-09 15:36:00,82.8,72.4,30.11,SSW,209,0.0,0.0,71,0.00,,---,0.00,VWS V14.01,2013-07-09 19:36:00,
2013-07-09 15:41:00,83.0,72.6,30.11,SSW,207,0.0,0.0,71,0.00,,---,0.00,VWS V14.01,2013-07-09 19:41:00,
2013-07-09 15:46:00,82.9,72.5,30.11,SSW,204,0.0,0.0,71,0.00,,---,0.00,VWS V14.01,2013-07-09 19:46:00,
2013-07-09 15:51:00,83.0,73.1,30.11,SW,216,0.0,0.0,72,0.00,,---,0.00,VWS V14.01,2013-07-09 19:51:00,
2013-07-09 15:56:00,83.3,72.9,30.10,SSW,205,0.0,0.0,71,0.00,,---,0.00,VWS V14.01,2013-07-09 19:56:00,
2013-07-09 16:00:00,83.3,72.9,30.10,SSW,207,0.0,0.0,71,0.00,,---,0.00,VWS V14.01,2013-07-09 20:00:00,
2013-07-09 16:01:00,83.4,73.4,30.11,SSW,210,0.0,0.0,72,0.00,,---,0.00,VWS V14.01,2013-07-09 20:01:00,
2013-07-09 16:06:00,83.3,72.9,30.11,SSW,211,0.0,0.0,71,0.00,,---,0.00,VWS V14.01,2013-07-09 20:06:00,
2013-07-09 16:11:00,83.0,73.1,30.11,SW,227,0.0,0.0,72,0.00,,---,0.00,VWS V14.01,2013-07-09 20:11:00,
2013-07-09 16:16:00,83.2,72.8,30.11,SSW,206,0.0,0.0,71,0.00,,---,0.00,VWS V14.01,2013-07-09 20:16:00,
2013-07-09 16:21:00,83.7,72.9,30.11,SSW,211,0.0,0.0,70,0.00,,---,0.00,VWS V14.01,2013-07-09 20:21:00,
2013-07-09 16:26:00,83.6,73.2,30.11,SSW,207,0.0,0.0,71,0.00,,---,0.00,VWS V14.01,2013-07-09 20:26:00,
2013-07-09 16:30:00,83.2,72.8,30.10,SSW,201,0.0,0.0,71,0.00,,---,0.00,VWS V14.01,2013-07-09 20:30:00,
2013-07-09 16:31:00,83.1,72.7,30.10,SSW,209,0.0,0.0,71,0.00,,---,0.00,VWS V14.01,2013-07-09 20:31:00,
2013-07-09 16:36:00,83.4,73.4,30.10,SW,215,0.0,0.0,72,0.00,,---,0.00,VWS V14.01,2013-07-09 20:36:00,
2013-07-09 16:41:00,83.7,73.3,30.11,South,186,0.0,0.0,71,0.00,,---,0.00,VWS V14.01,2013-07-09 20:41:00,
2013-07-09 16:46:00,83.6,73.2,30.10,SSW,213,0.0,0.0,71,0.00,,---,0.00,VWS V14.01,2013-07-09 20:46:00,
2013-07-09 16:51:00,83.6,73.2,30.10,SW,216,0.0,0.0,71,0.00,,---,0.00,VWS V14.01,2013-07-09 20:51:00,
2013-07-09 16:56:00,83.7,72.9,30.10,SW,232,0.0,0.0,70,0.00,,---,0.00,VWS V14.01,2013-07-09 20:56:00,
2013-07-09 17:00:00,83.7,73.3,30.10,WSW,240,0.0,0.0,71,0.00,,---,0.00,VWS V14.01,2013-07-09 21:00:00,
2013-07-09 17:01:00,83.7,73.3,30.10,South,184,0.0,0.0,71,0.00,,---,0.00,VWS V14.01,2013-07-09 21:01:00,
2013-07-09 17:06:00,83.6,73.2,30.10,SW,226,0.0,0.0,71,0.00,,---,0.00,VWS V14.01,2013-07-09 21:06:00,
2013-07-09 17:11:00,83.2,72.4,30.10,SSW,213,0.0,0.0,70,0.00,,---,0.00,VWS V14.01,2013-07-09 21:11:00,
2013-07-09 17:16:00,83.1,72.7,30.10,SSW,203,0.0,0.0,71,0.00,,---,0.00,VWS V14.01,2013-07-09 21:16:00,
2013-07-09 17:21:00,82.9,72.5,30.10,SSW,198,0.0,0.0,71,0.00,,---,0.00,VWS V14.01,2013-07-09 21:21:00,
2013-07-09 17:26:00,82.4,72.5,30.09,SW,217,0.0,0.0,72,0.00,,---,0.00,VWS V14.01,2013-07-09 21:26:00,
2013-07-09 17:30:00,82.2,72.3,30.10,SSW,198,0.0,0.0,72,0.00,,---,0.00,VWS V14.01,2013-07-09 21:30:00,
2013-07-09 17:31:00,82.2,72.3,30.09,SW,224,0.0,0.0,72,0.00,,---,0.00,VWS V14.01,2013-07-09 21:31:00,
2013-07-09 17:36:00,82.2,72.3,30.09,SW,218,0.0,0.0,72,0.00,,---,0.00,VWS V14.01,2013-07-09 21:36:00,
2013-07-09 17:41:00,82.2,72.3,30.10,SW,216,0.0,0.0,72,0.00,,---,0.00,VWS V14.01,2013-07-09 21:41:00,
2013-07-09 17:46:00,82.5,73.0,30.10,SW,214,0.0,0.0,73,0.00,,---,0.00,VWS V14.01,2013-07-09 21:46:00,
2013-07-09 17:51:00,82.5,72.6,30.10,SSW,211,0.0,0.0,72,0.00,,---,0.00,VWS V14.01,2013-07-09 21:51:00,
2013-07-09 17:56:00,82.6,72.2,30.09,SW,215,0.0,0.0,71,0.00,,---,0.00,VWS V14.01,2013-07-09 21:56:00,
2013-07-09 18:00:00,83.0,72.6,30.10,SW,217,0.0,0.0,71,0.00,,---,0.00,VWS V14.01,2013-07-09 22:00:00,
2013-07-09 18:01:00,83.1,72.7,30.09,SW,216,0.0,0.0,71,0.00,,---,0.00,VWS V14.01,2013-07-09 22:01:00,
2013-07-09 18:06:00,83.1,72.7,30.10,SSW,196,0.0,0.0,71,0.00,,---,0.00,VWS V14.01,2013-07-09 22:06:00,
2013-07-09 18:11:00,83.0,72.6,30.09,SSW,209,0.0,0.0,71,0.00,,---,0.00,VWS V14.01,2013-07-09 22:11:00,
2013-07-09 18:16:00,82.8,72.4,30.09,SSW,209,0.0,0.0,71,0.00,,---,0.00,VWS V14.01,2013-07-09 22:16:00,
2013-07-09 18:21:00,82.7,72.3,30.09,SSW,211,0.0,0.0,71,0.00,,---,0.00,VWS V14.01,2013-07-09 22:21:00,
2013-07-09 18:26:00,82.7,72.3,30.10,SSW,209,0.0,0.0,71,0.00,,---,0.00,VWS V14.01,2013-07-09 22:26:00,
2013-07-09 18:30:00,82.5,72.2,30.09,SW,217,0.0,0.0,71,0.00,,---,0.00,VWS V14.01,2013-07-09 22:30:00,
2013-07-09 18:31:00,82.5,72.6,30.09,SW,223,0.0,0.0,72,0.00,,---,0.00,VWS V14.01,2013-07-09 22:31:00,
2013-07-09 18:36:00,82.5,72.6,30.09,SW,219,0.0,0.0,72,0.00,,---,0.00,VWS V14.01,2013-07-09 22:36:00,
2013-07-09 18:41:00,82.4,72.5,30.09,SW,222,0.0,0.0,72,0.00,,---,0.00,VWS V14.01,2013-07-09 22:41:00,
2013-07-09 18:46:00,82.4,72.5,30.09,SW,223,0.0,0.0,72,0.00,,---,0.00,VWS V14.01,2013-07-09 22:46:00,
2013-07-09 18:51:00,82.3,72.4,30.10,SW,229,0.0,0.0,72,0.00,,---,0.00,VWS V14.01,2013-07-09 22:51:00,
2013-07-09 18:56:00,82.3,72.4,30.09,SW,217,0.0,0.0,72,0.00,,---,0.00,VWS V14.01,2013-07-09 22:56:00,
2013-07-09 19:00:00,82.2,72.3,30.09,SW,222,0.0,0.0,72,0.00,,---,0.00,VWS V14.01,2013-07-09 23:00:00,
2013-07-09 19:01:00,82.2,72.3,30.09,SSW,205,0.0,0.0,72,0.00,,---,0.00,VWS V14.01,2013-07-09 23:01:00,
2013-07-09 19:06:00,81.9,72.0,30.09,SSW,211,0.0,0.0,72,0.00,,---,0.00,VWS V14.01,2013-07-09 23:06:00,
2013-07-09 19:11:00,81.7,71.8,30.09,SW,221,0.0,0.0,72,0.00,,---,0.00,VWS V14.01,2013-07-09 23:11:00,
2013-07-09 19:16:00,81.6,72.1,30.09,SSW,202,0.0,0.0,73,0.00,,---,0.00,VWS V14.01,2013-07-09 23:16:00,
2013-07-09 19:21:00,81.5,72.0,30.09,SW,215,0.0,0.0,73,0.00,,---,0.00,VWS V14.01,2013-07-09 23:21:00,
2013-07-09 19:26:00,81.4,71.9,30.09,SW,217,0.0,0.0,73,0.00,,---,0.00,VWS V14.01,2013-07-09 23:26:00,
2013-07-09 19:30:00,81.4,71.9,30.09,SW,228,0.0,0.0,73,0.00,,---,0.00,VWS V14.01,2013-07-09 23:30:00,
2013-07-09 19:31:00,81.4,71.9,30.10,SW,232,0.0,0.0,73,0.00,,---,0.00,VWS V14.01,2013-07-09 23:31:00,
2013-07-09 19:36:00,81.2,71.7,30.10,SSW,212,0.0,0.0,73,0.00,,---,0.00,VWS V14.01,2013-07-09 23:36:00,
2013-07-09 19:41:00,81.2,71.7,30.10,SSW,205,0.0,0.0,73,0.00,,---,0.00,VWS V14.01,2013-07-09 23:41:00,
2013-07-09 19:46:00,81.7,76.4,30.10,East,98,0.0,2.0,84,0.00,,---,0.00,VWS V14.01,2013-07-09 23:46:00,
2013-07-09 19:51:00,81.6,76.3,30.10,SE,128,0.0,4.0,84,0.00,,---,0.00,VWS V14.01,2013-07-09 23:51:00,
2013-07-09 19:56:00,81.6,76.3,30.10,ESE,123,1.0,4.0,84,0.00,,---,0.00,VWS V14.01,2013-07-09 23:56:00,
2013-07-09 20:00:00,81.6,76.3,30.10,ESE,123,1.0,4.0,84,0.00,,---,0.00,VWS V14.01,2013-07-10 00:00:00,
2013-07-09 20:01:00,81.6,76.3,30.10,ESE,123,1.0,1.0,84,0.00,,---,0.00,VWS V14.01,2013-07-10 00:01:00,
2013-07-09 20:06:00,81.6,76.3,30.10,ESE,123,1.0,1.0,84,0.00,,---,0.00,VWS V14.01,2013-07-10 00:06:00,
2013-07-09 20:11:00,81.6,76.3,30.09,ESE,123,1.0,1.0,84,0.00,,---,0.00,VWS V14.01,2013-07-10 00:11:00,
2013-07-09 20:16:00,81.6,76.3,30.09,ESE,123,1.0,1.0,84,0.00,,---,0.00,VWS V14.01,2013-07-10 00:16:00,
2013-07-09 20:21:00,81.6,76.3,30.09,ESE,123,1.0,1.0,84,0.00,,---,0.00,VWS V14.01,2013-07-10 00:21:00,
2013-07-09 20:26:00,81.6,76.3,30.09,ESE,123,1.0,1.0,84,0.00,,---,0.00,VWS V14.01,2013-07-10 00:26:00,
2013-07-09 20:30:00,81.6,76.3,30.10,ESE,123,1.0,1.0,84,0.00,,---,0.00,VWS V14.01,2013-07-10 00:30:00,
2013-07-09 20:31:00,81.6,76.3,30.10,ESE,123,1.0,1.0,84,0.00,,---,0.00,VWS V14.01,2013-07-10 00:31:00,
2013-07-09 20:36:00,81.6,76.3,30.10,ESE,123,1.0,1.0,84,0.00,,---,0.00,VWS V14.01,2013-07-10 00:36:00,
2013-07-09 20:41:00,81.6,76.3,30.10,ESE,123,1.0,1.0,84,0.00,,---,0.00,VWS V14.01,2013-07-10 00:41:00,
2013-07-09 20:45:00,81.6,76.3,30.10,ESE,123,1.0,1.0,84,0.00,,---,0.00,VWS V14.01,2013-07-10 00:45:00,
2013-07-09 20:51:00,81.6,76.3,30.10,ESE,123,1.0,1.0,84,0.00,,---,0.00,VWS V14.01,2013-07-10 00:51:00,
2013-07-09 20:55:00,81.6,76.3,30.11,ESE,123,1.0,1.0,84,0.00,,---,0.00,VWS V14.01,2013-07-10 00:55:00,
2013-07-09 21:00:00,81.6,76.3,30.10,ESE,123,1.0,1.0,84,0.00,,---,0.00,VWS V14.01,2013-07-10 01:00:00,
2013-07-09 21:01:00,81.6,76.3,30.11,ESE,123,1.0,1.0,84,0.00,,---,0.00,VWS V14.01,2013-07-10 01:01:00,
2013-07-09 21:06:00,81.6,76.3,30.11,ESE,123,1.0,1.0,84,0.00,,---,0.00,VWS V14.01,2013-07-10 01:06:00,
2013-07-09 21:11:00,81.6,76.3,30.10,ESE,123,1.0,1.0,84,0.00,,---,0.00,VWS V14.01,2013-07-10 01:11:00,
2013-07-09 21:16:00,81.6,76.3,30.10,ESE,123,1.0,1.0,84,0.00,,---,0.00,VWS V14.01,2013-07-10 01:16:00,
2013-07-09 21:20:00,81.6,76.3,30.10,ESE,123,1.0,1.0,84,0.00,,---,0.00,VWS V14.01,2013-07-10 01:20:00,
2013-07-09 21:25:00,81.6,76.3,30.11,ESE,123,1.0,1.0,84,0.00,,---,0.00,VWS V14.01,2013-07-10 01:25:00,
2013-07-09 21:30:00,81.6,76.3,30.11,ESE,123,1.0,1.0,84,0.00,,---,0.00,VWS V14.01,2013-07-10 01:30:00,
2013-07-09 21:35:00,81.6,76.3,30.10,ESE,123,1.0,1.0,84,0.00,,---,0.00,VWS V14.01,2013-07-10 01:35:00,
2013-07-09 21:40:00,81.6,76.3,30.11,ESE,123,1.0,1.0,84,0.00,,---,0.00,VWS V14.01,2013-07-10 01:40:00,
2013-07-09 21:41:00,81.6,76.3,30.11,ESE,123,1.0,1.0,84,0.00,,---,0.00,VWS V14.01,2013-07-10 01:41:00,
2013-07-09 21:46:00,81.6,76.3,30.10,ESE,123,1.0,1.0,84,0.00,,---,0.00,VWS V14.01,2013-07-10 01:46:00,
2013-07-09 21:51:00,81.6,76.3,30.11,ESE,123,1.0,1.0,84,0.00,,---,0.00,VWS V14.01,2013-07-10 01:51:00,
2013-07-09 21:56:00,81.6,76.3,30.10,ESE,123,1.0,1.0,84,0.00,,---,0.00,VWS V14.01,2013-07-10 01:56:00,
2013-07-09 22:00:00,81.6,76.3,30.10,ESE,123,1.0,1.0,84,0.00,,---,0.00,VWS V14.01,2013-07-10 02:00:00,
2013-07-09 22:01:00,81.6,76.3,30.10,ESE,123,1.0,1.0,84,0.00,,---,0.00,VWS V14.01,2013-07-10 02:01:00,
2013-07-09 22:06:00,81.6,76.3,30.10,ESE,123,1.0,1.0,84,0.00,,---,0.00,VWS V14.01,2013-07-10 02:06:00,
2013-07-09 22:11:00,81.6,76.3,30.11,ESE,123,1.0,1.0,84,0.00,,---,0.00,VWS V14.01,2013-07-10 02:11:00,
2013-07-09 22:16:00,81.6,76.3,30.11,ESE,123,1.0,1.0,84,0.00,,---,0.00,VWS V14.01,2013-07-10 02:16:00,
2013-07-09 22:21:00,81.6,76.3,30.11,ESE,123,1.0,1.0,84,0.00,,---,0.00,VWS V14.01,2013-07-10 02:21:00,
2013-07-09 22:26:00,81.6,76.3,30.11,ESE,123,1.0,1.0,84,0.00,,---,0.00,VWS V14.01,2013-07-10 02:26:00,
2013-07-09 22:30:00,0.0,0.0,30.10,North,0,0.0,0.0,0,0.00,,---,0.00,VWS V14.01,2013-07-10 02:30:00,
2013-07-09 23:00:00,0.0,0.0,30.11,North,0,0.0,0.0,0,0.00,,---,0.00,VWS V14.01,2013-07-10 03:00:00,
2013-07-09 23:30:00,0.0,0.0,30.12,North,0,0.0,0.0,0,0.00,,---,0.00,VWS V14.01,2013-07-10 03:30:00,